CDT,Max TemperatureF,Mean TemperatureF,Min TemperatureF,Max Dew PointF,MeanDew PointF,Min DewpointF,Max Humidity, Mean Humidity, Min Humidity, Max Sea Level PressureIn, Mean Sea Level PressureIn, Min Sea Level PressureIn, Max VisibilityMiles, Mean VisibilityMiles, Min VisibilityMiles, Max Wind SpeedMPH, Mean Wind SpeedMPH, Max Gust SpeedMPH,PrecipitationIn, CloudCover, Events, WindDirDegrees
2012-10-1,77,62,48,55,49,46,93,63,34,30.04,29.97,29.92,10,10,6,28,9,37,0.00,3,Rain,350
2012-10-2,73,60,46,46,40,32,87,53,22,30.07,30.00,29.91,10,10,2,10,8,,0.00,0,,287
2012-10-3,82,63,44,52,45,39,87,54,28,29.95,29.91,29.84,10,9,2,22,10,30,0.00,0,,184
2012-10-4,64,58,53,52,41,36,82,55,39,30.26,30.17,29.93,10,10,10,25,13,36,0.00,6,,37
2012-10-5,59,52,44,39,34,25,62,47,33,30.33,30.24,30.19,10,10,9,18,11,25,0.00,5,,45
2012-10-6,46,44,39,34,32,30,75,61,57,30.38,30.33,30.29,10,10,10,17,9,24,0.00,7,,37
2012-10-7,53,40,28,32,29,27,100,65,35,30.38,30.29,30.19,10,10,6,12,7,,0.00,1,,259
2012-10-8,68,50,32,36,32,28,87,54,26,30.19,30.07,29.96,10,10,10,22,12,28,0.00,1,,206
2012-10-9,73,57,41,46,41,36,87,59,35,30.18,29.93,29.84,10,10,6,21,12,29,0.00,1,Rain,209
2012-10-10,68,52,37,39,32,25,81,48,23,30.31,30.20,30.10,10,10,5,14,8,20,0.00,2,,105
2012-10-11,86,67,48,63,53,39,88,59,40,30.11,30.03,29.94,10,10,7,29,13,34,0.00,3,,198
2012-10-12,69,61,53,63,49,39,100,73,48,30.22,30.12,29.98,10,8,0,15,9,18,0.00,7,Fog-Rain-Thunderstorm,9
2012-10-13,86,70,55,66,55,32,100,62,16,29.96,29.79,29.63,10,9,1,28,14,34,0.00,4,Rain-Thunderstorm,218
2012-10-14,78,64,51,46,39,34,63,40,21,30.13,30.01,29.75,10,10,10,22,15,29,0.00,1,,320
2012-10-15,89,70,50,41,40,37,66,41,16,30.10,29.96,29.83,10,10,9,22,13,31,0.00,0,,227
2012-10-16,82,70,57,55,47,41,82,47,30,29.83,29.67,29.49,10,10,9,20,14,25,0.00,0,,198
2012-10-17,73,60,44,55,38,18,100,52,15,29.88,29.63,29.38,10,9,1,29,14,43,0.00,0,,341
2012-10-18,69,52,35,23,17,10,60,29,11,30.01,29.95,29.89,10,9,5,41,14,51,0.00,2,,307
2012-10-19,75,58,42,27,15,1,37,21,7,30.00,29.93,29.83,10,10,7,23,13,31,0.00,1,,301
2012-10-20,84,62,41,52,38,25,72,44,25,29.83,29.74,29.67,10,10,2,16,7,20,0.00,0,,156
2012-10-21,93,72,50,64,51,39,100,62,16,29.71,29.67,29.61,10,8,0,24,9,34,0.00,1,Fog-Rain,171
2012-10-22,73,65,57,63,54,39,83,65,44,29.90,29.80,29.70,10,10,3,17,11,23,0.00,1,,242
2012-10-23,93,78,64,64,57,36,94,59,13,29.80,29.74,29.68,10,9,5,28,17,36,0.00,1,,201
2012-10-24,82,73,64,64,64,63,94,74,54,29.80,29.74,29.64,10,10,7,28,18,32,0.00,1,,189
2012-10-25,71,55,39,63,39,28,77,61,44,30.31,30.02,29.59,10,10,10,33,22,45,0.00,4,,357
2012-10-26,48,38,28,28,24,19,87,59,32,30.52,30.41,30.31,10,10,9,21,13,29,0.00,2,,15
2012-10-27,48,36,24,25,22,19,80,59,37,30.41,30.32,30.21,10,10,7,9,6,,0.00,0,,93
2012-10-28,62,44,26,27,24,19,75,48,24,30.30,30.23,30.15,10,10,7,17,6,20,0.00,0,,169
2012-10-29,69,50,32,32,29,27,80,49,21,30.23,30.15,30.05,10,10,9,18,11,24,0.00,0,,193
2012-10-30,84,62,41,39,35,32,70,42,19,30.05,29.97,29.87,10,10,6,16,11,25,0.00,0,,281
2012-10-31,77,58,39,39,36,32,81,54,24,30.12,30.03,29.97,10,10,3,12,6,,0.00,0,,17